Regional Weather Roundup
Issued by NWS

Home | Current Version | Previous Version | Graphics & Text | Print | Product List | Glossary Off
Versions: 1 2 3 4 5 6 7 8 9 10 11 12 13 14 15 16 17 18 19 20 21 22 23 24 25 26 27 28 29 30 31 32 33 34 35 36 37 38 39 40 41 42 43 44 45 46 47 48 49 50

000
ASUS43 KTOP 301908
RWRKS

WEATHER ROUNDUP FOR KANSAS
NATIONAL WEATHER SERVICE GOODLAND KS
200 PM CDT WED JUL 30 2014

NOTE:  "FAIR" INDICATES FEW OR NO CLOUDS BELOW 12,000 FEET WITH NO
SIGNIFICANT WEATHER AND/OR OBSTRUCTIONS TO VISIBILITY.

KSZ001>006-013>018-027>032-041>047-302000-
NORTHWEST KANSAS

CITY           SKY/WX    TMP DP  RH WIND       PRES   REMARKS
GOODLAND       CLOUDY    67  57  70 E13       30.26F
HAYS           CLOUDY    70  59  68 E9        30.17F
HILL CITY      CLOUDY    73  57  57 VRB3      30.20S
RUSSELL        LGT RAIN  69  62  78 E8        30.15F
$$

KSZ061>065-074>080-084>089-302000-
SOUTHWEST KANSAS

CITY           SKY/WX    TMP DP  RH WIND       PRES   REMARKS
DODGE CITY     CLOUDY    65  62  90 NE17      30.15R
ELKHART          N/A     65  59  81 N15         N/A
GARDEN CITY    CLOUDY    64  60  87 NE24G30   30.17S
GREAT BEND       N/A     64  61  88 NE13      30.14F
LIBERAL        CLOUDY    66  61  82 NE21G31   30.13R
PRATT          LGT RAIN  63  63 100 NE17      30.12S
$$

KSZ066>073-081>083-090>101-302000-
SOUTHEAST KANSAS

CITY           SKY/WX    TMP DP  RH WIND       PRES   REMARKS
CHANUTE        LGT RAIN  70  65  84 NE7       30.11F
COFFEYVILLE    LGT RAIN  71  67  87 W5        30.08F FOG
HUTCHINSON     LGT RAIN  66  63  90 NE7       30.12S FOG
MEDICINE LODGE   N/A     67  66  97 NE8       30.08S
NEWTON         CLOUDY    64  61  88 NE8       30.15F
PARSONS        CLOUDY    70  65  84 NE5       30.11S
WICHITA INTL   LGT RAIN  69  66  90 NE14      30.09F
WICHITA JABRA  LGT RAIN  67  32  27 NE13      30.10S
WICHITA MCCONL LGT RAIN  68  68 100 E12       30.09F
WINFIELD       RAIN      69  68  96 E8        30.09S FOG
$$

KSZ007>012-019>026-033>040-048>060-102>105-302000-
NORTHEAST KANSAS

CITY           SKY/WX    TMP DP  RH WIND       PRES   REMARKS
CONCORDIA      CLOUDY    74  58  57 VRB3      30.15F
EMPORIA        LGT RAIN  66  63  90 NE9       30.13F
LAWRENCE       CLOUDY    79  57  46 E5        30.11F
MANHATTAN      CLOUDY    74  58  57 E3        30.13F
MARYSVILLE     PTSUNNY   77  52  41 NE7       30.13F
OLATHE IND     CLOUDY    76  58  53 N3        30.12F
OLATHE EXE     CLOUDY    75  58  55 VRB3      30.11F
SALINA         CLOUDY    70  62  76 E6        30.15F
TOPEKA BILLARD CLOUDY    78  56  46 E5        30.12F
TOPEKA FORBES  CLOUDY    74  56  53 VRB3      30.12F
$$



USA.gov is the U.S. government's official web portal to all federal, state and local government web resources and services.